Location: Poughquag
(41.6090°N, 73.6820°W)
Time: 13:40:52
(UTC-04:00)

Vanguard 3 - Pass Details

Date: 01 June 2020
Orbit: 510 x 3261 km, 33.3° (Epoch: 05 July)

Event Time Altitude Azimuth Distance (km) Brightness Sun altitude
Exits shadow 03:28:28 20° 223° (SW) 5,029 10.5 -16.8°
Maximum altitude 03:40:33 47° 164° (SSE) 2,943 9.7 -15.4°
Drops below altitude 10° 03:51:05 10° 95° (E) 3,943 11.2 -14.1°
Sets 03:53:48 0° 89° (E) 4,615 11.7 -13.7°
